When you browse on this site, cookies collect data to enhance your experience and personalize the content and advertising you see.
Visit our Privacy Policy to learn more. By continuing to use the site, you agree to this use of cookies and data.
  • Em Portugal
  • Lista de países
  • Para 7 dias
  • Temperatura da água
  • Mapa do tempo
  • Widgets de tempo
  • user-avatar
    Iniciar Sessão

    Previsão horária em Ghadamis

    Hoje, 8 Abril, Quarta-feira

    Tempo Temperatura Precipitação Vento Pressão Humidade
    00:00 +19°C° 0 mm 5 m/s 736 mmHg 36%
    01:00 +18°C° 0 mm 4 m/s 736 mmHg 38%
    02:00 +18°C° 0 mm 4 m/s 736 mmHg 38%
    03:00 +17°C° 0 mm 3 m/s 735 mmHg 39%
    04:00 +17°C° 0 mm 3 m/s 735 mmHg 39%
    05:00 +17°C° 0 mm 3 m/s 735 mmHg 38%
    06:00 +17°C° 0 mm 3 m/s 735 mmHg 37%
    07:00 +17°C° 0 mm 3 m/s 736 mmHg 36%
    08:00 +18°C° 0 mm 2 m/s 736 mmHg 32%
    09:00 +20°C° 0 mm 2 m/s 736 mmHg 29%
    10:00 +23°C° 0 mm 2 m/s 737 mmHg 25%
    11:00 +24°C° 0 mm 2 m/s 736 mmHg 24%
    12:00 +25°C° 0 mm 2 m/s 736 mmHg 22%
    13:00 +26°C° 0 mm 3 m/s 735 mmHg 21%
    14:00 +27°C° 0 mm 3 m/s 735 mmHg 21%
    15:00 +27°C° 0 mm 4 m/s 734 mmHg 20%
    16:00 +27°C° 0 mm 5 m/s 734 mmHg 20%
    17:00 +26°C° 0 mm 5 m/s 734 mmHg 22%
    18:00 +25°C° 0 mm 5 m/s 734 mmHg 24%
    19:00 +23°C° 0 mm 5 m/s 734 mmHg 25%
    20:00 +22°C° 0 mm 5 m/s 734 mmHg 27%
    21:00 +21°C° 0 mm 5 m/s 735 mmHg 28%
    22:00 +20°C° 0 mm 6 m/s 736 mmHg 29%
    23:00 +19°C° 0 mm 5 m/s 736 mmHg 31%

    Amanhã, 9 Abril, Quinta-feira

    Tempo Temperatura Precipitação Vento Pressão Humidade
    00:00 +17°C° 0 mm 5 m/s 736 mmHg 33%
    01:00 +18°C° 0 mm 4 m/s 735 mmHg 35%
    02:00 +17°C° 0 mm 4 m/s 735 mmHg 38%
    03:00 +15°C° 0 mm 4 m/s 735 mmHg 41%
    04:00 +16°C° 0 mm 3 m/s 734 mmHg 45%
    05:00 +16°C° 0 mm 3 m/s 734 mmHg 45%
    06:00 +16°C° 0 mm 3 m/s 735 mmHg 46%
    07:00 +14°C° 0 mm 3 m/s 735 mmHg 46%
    08:00 +18°C° 0 mm 3 m/s 735 mmHg 40%
    09:00 +20°C° 0 mm 3 m/s 735 mmHg 33%
    10:00 +22°C° 0 mm 3 m/s 736 mmHg 26%
    11:00 +24°C° 0 mm 3 m/s 735 mmHg 24%
    12:00 +25°C° 0 mm 3 m/s 735 mmHg 21%
    13:00 +26°C° 0 mm 3 m/s 735 mmHg 18%
    14:00 +27°C° 0 mm 3 m/s 734 mmHg 18%
    15:00 +27°C° 0 mm 4 m/s 734 mmHg 18%
    16:00 +27°C° 0 mm 5 m/s 733 mmHg 18%
    17:00 +26°C° 0 mm 5 m/s 733 mmHg 19%
    18:00 +25°C° 0 mm 5 m/s 734 mmHg 20%
    19:00 +23°C° 0 mm 5 m/s 734 mmHg 22%
    20:00 +22°C° 0 mm 6 m/s 734 mmHg 23%
    21:00 +21°C° 0 mm 6 m/s 735 mmHg 24%
    22:00 +20°C° 0 mm 7 m/s 735 mmHg 25%
    23:00 +19°C° 0 mm 6 m/s 735 mmHg 28%

    Depois de amanhã, 10 Abril, Sexta-feira

    Tempo Temperatura Precipitação Vento Pressão Humidade
    00:00 +17°C° 0 mm 6 m/s 735 mmHg 30%
    01:00 +17°C° 0 mm 5 m/s 735 mmHg 33%
    02:00 +16°C° 0 mm 5 m/s 734 mmHg 33%
    03:00 +16°C° 0 mm 5 m/s 734 mmHg 34%
    04:00 +16°C° 0 mm 5 m/s 734 mmHg 35%
    05:00 +17°C° 0 mm 4 m/s 734 mmHg 35%
    06:00 +17°C° 0 mm 4 m/s 735 mmHg 36%
    07:00 +17°C° 0 mm 3 m/s 735 mmHg 36%
    08:00 +19°C° 0 mm 3 m/s 735 mmHg 32%
    09:00 +21°C° 0 mm 3 m/s 735 mmHg 27%
    10:00 +24°C° 0 mm 3 m/s 735 mmHg 23%
    11:00 +25°C° 0 mm 3 m/s 735 mmHg 22%
    12:00 +27°C° 0 mm 3 m/s 734 mmHg 21%
    13:00 +28°C° 0 mm 2 m/s 734 mmHg 20%
    14:00 +28°C° 0 mm 3 m/s 733 mmHg 19%
    15:00 +29°C° 0 mm 3 m/s 733 mmHg 19%
    16:00 +29°C° 0 mm 4 m/s 732 mmHg 18%
    17:00 +28°C° 0 mm 4 m/s 732 mmHg 20%
    18:00 +27°C° 0 mm 4 m/s 732 mmHg 21%
    19:00 +26°C° 0 mm 4 m/s 732 mmHg 22%
    20:00 +25°C° 0 mm 4 m/s 733 mmHg 23%
    21:00 +23°C° 0 mm 4 m/s 733 mmHg 24%
    22:00 +22°C° 0 mm 4 m/s 734 mmHg 25%
    23:00 +21°C° 0 mm 4 m/s 733 mmHg 26%

    11 Abril, Sábado

    Tempo Temperatura Precipitação Vento Pressão Humidade
    00:00 +20°C° 0 mm 4 m/s 733 mmHg 28%
    01:00 +20°C° 0 mm 4 m/s 733 mmHg 29%
    02:00 +19°C° 0 mm 4 m/s 733 mmHg 31%
    03:00 +19°C° 0 mm 4 m/s 733 mmHg 32%
    04:00 +18°C° 0 mm 4 m/s 733 mmHg 34%
    05:00 +17°C° 0 mm 5 m/s 733 mmHg 34%
    06:00 +17°C° 0 mm 5 m/s 733 mmHg 35%
    07:00 +17°C° 0 mm 6 m/s 733 mmHg 35%
    08:00 +21°C° 0 mm 5 m/s 733 mmHg 30%
    09:00 +23°C° 0 mm 5 m/s 734 mmHg 26%
    10:00 +26°C° 0 mm 4 m/s 734 mmHg 22%
    11:00 +28°C° 0 mm 3 m/s 734 mmHg 20%
    12:00 +29°C° 0 mm 3 m/s 733 mmHg 19%
    13:00 +30°C° 0 mm 2 m/s 733 mmHg 18%
    14:00 +31°C° 0 mm 3 m/s 732 mmHg 17%
    15:00 +32°C° 0 mm 4 m/s 732 mmHg 17%
    16:00 +33°C° 0 mm 4 m/s 731 mmHg 16%
    17:00 +30°C° 0 mm 4 m/s 731 mmHg 18%
    18:00 +29°C° 0 mm 4 m/s 732 mmHg 19%
    19:00 +28°C° 0 mm 4 m/s 732 mmHg 20%
    20:00 +27°C° 0 mm 4 m/s 732 mmHg 21%
    21:00 +26°C° 0 mm 4 m/s 732 mmHg 22%
    22:00 +25°C° 0 mm 5 m/s 733 mmHg 23%
    23:00 +23°C° 0 mm 5 m/s 733 mmHg 24%

    12 Abril, Domingo

    Tempo Temperatura Precipitação Vento Pressão Humidade
    00:00 +23°C° 0 mm 5 m/s 733 mmHg 25%
    01:00 +22°C° 0 mm 5 m/s 732 mmHg 25%
    02:00 +21°C° 0 mm 4 m/s 732 mmHg 26%
    03:00 +21°C° 0 mm 4 m/s 732 mmHg 27%
    04:00 +20°C° 0 mm 3 m/s 732 mmHg 28%
    05:00 +20°C° 0 mm 3 m/s 732 mmHg 28%
    06:00 +20°C° 0 mm 3 m/s 733 mmHg 27%
    07:00 +20°C° 0 mm 3 m/s 733 mmHg 27%
    08:00 +24°C° 0 mm 3 m/s 733 mmHg 24%
    09:00 +26°C° 0 mm 2 m/s 733 mmHg 21%
    10:00 +28°C° 0 mm 2 m/s 734 mmHg 18%
    11:00 +30°C° 0 mm 2 m/s 733 mmHg 17%
    12:00 +31°C° 0 mm 1 m/s 733 mmHg 16%
    13:00 +32°C° 0 mm 1 m/s 732 mmHg 15%
    14:00 +33°C° 0 mm 3 m/s 732 mmHg 15%
    15:00 +34°C° 0 mm 4 m/s 731 mmHg 15%
    16:00 +34°C° 0 mm 5 m/s 731 mmHg 14%
    17:00 +33°C° 0 mm 5 m/s 731 mmHg 15%
    18:00 +30°C° 0 mm 5 m/s 731 mmHg 16%
    19:00 +29°C° 0 mm 5 m/s 731 mmHg 17%
    20:00 +28°C° 0 mm 5 m/s 731 mmHg 17%
    21:00 +27°C° 0 mm 6 m/s 731 mmHg 18%
    22:00 +26°C° 0 mm 6 m/s 732 mmHg 18%
    23:00 +25°C° 0 mm 5 m/s 732 mmHg 21%

    13 Abril, Segunda-feira

    Tempo Temperatura Precipitação Vento Pressão Humidade
    00:00 +23°C° 0 mm 5 m/s 731 mmHg 23%
    01:00 +22°C° 0 mm 4 m/s 731 mmHg 26%
    02:00 +22°C° 0 mm 4 m/s 731 mmHg 26%
    03:00 +21°C° 0 mm 4 m/s 731 mmHg 26%
    04:00 +21°C° 0 mm 4 m/s 730 mmHg 27%
    05:00 +21°C° 0 mm 4 m/s 731 mmHg 25%
    06:00 +22°C° 0 mm 4 m/s 731 mmHg 23%
    07:00 +22°C° 0 mm 4 m/s 731 mmHg 22%
    08:00 +27°C° 0 mm 5 m/s 731 mmHg 19%
    09:00 +30°C° 0 mm 6 m/s 731 mmHg 16%
    10:00 +34°C° 0 mm 7 m/s 731 mmHg 14%
    11:00 +35°C° 0 mm 6 m/s 730 mmHg 12%
    12:00 +37°C° 0 mm 5 m/s 730 mmHg 11%
    13:00 +40°C° 0 mm 5 m/s 730 mmHg 10%
    14:00 +40°C° 0 mm 4 m/s 729 mmHg 9%
    15:00 +39°C° 0 mm 3 m/s 729 mmHg 9%
    16:00 +39°C° 0 mm 2 m/s 728 mmHg 8%
    17:00 +38°C° 0 mm 2 m/s 728 mmHg 9%
    18:00 +36°C° 0 mm 3 m/s 728 mmHg 10%
    19:00 +35°C° 0 mm 3 m/s 728 mmHg 11%
    20:00 +34°C° 0 mm 4 m/s 728 mmHg 12%
    21:00 +32°C° 0 mm 4 m/s 729 mmHg 12%
    22:00 +30°C° 0 mm 5 m/s 729 mmHg 13%
    23:00 +30°C° 0 mm 5 m/s 729 mmHg 14%
    Mostrar mais